Location: Albuquerque Trailhead
(34.7934°N, 106.3736°W)
Time: 19:52:58
(UTC+00:00)

NOAA 19 - Pass Details

Date: 04 April 2023
Orbit: 840 x 859 km, 99.1° (Epoch: 31 May)

Event Time Altitude Azimuth Distance (km) Brightness Sun altitude
Exits shadow 04:12:41 11° 223° (SW) 2,375 7.6 -32.2°
Maximum altitude 04:16:12 20° 265° (W) 1,878 7.4 -32.8°
Drops below altitude 10° 04:20:05 10° 311° (NW) 2,466 8.4 -33.4°
Sets 04:23:08 0° 328° (NNW) 3,403 9.3 -33.9°
